Location: Saratoga Springs
(43.0831°N, 73.7850°W)
Time: 17:44:55
(UTC-04:00)

Vanguard 2 - Pass Details

Date: 26 April 2024
Orbit: 553 x 2914 km, 32.9° (Epoch: 19 May)

Event Time Altitude Azimuth Distance (km) Brightness Sun altitude
Rises 22:25:57 0° 192° (SSW) 4,338 - -23.8°
Reaches altitude 10° 22:29:42 10° 175° (S) 3,755 - -24.2°
Maximum altitude 22:36:14 19° 134° (SE) 3,692 - -24.9°
Drops below altitude 10° 22:44:39 10° 97° (E) 5,041 - -25.8°
Exits shadow 22:45:27 - 95° (E) 5,210 11.4 -25.9°
Sets 22:50:56 0° 83° (E) 6,417 12.0 -26.5°
